Fort Benning, AL

7:09 AM CDT on August 19, 2017 (GMT -0500)
Lawson Army Air Field

Weather History for KLSF - January, 2013

Change the Weather History Date:

Tuesday, January 1, 2013

  Actual Average Record
Temperature  
Mean Temperature 58 °F -  
Max Temperature 71 °F 57 °F 73 °F (2000)
Min Temperature 44 °F 32 °F 19 °F (1998)
Degree Days  
Heating Degree Days 8    
Growing Degree Days 8 (Base 50)    
Moisture  
Dew Point 57 °F    
Average Humidity 88    
Maximum Humidity 100    
Minimum Humidity 63    
Precipitation  
Precipitation 0.54 in - - ()
Sea Level Pressure  
Sea Level Pressure 29.98 in    
Wind  
Wind Speed 3 mph (South)    
Max Wind Speed 10 mph    
Max Gust Speed -    
Visibility 7 miles    
Events Rain    
Averages and records for this station are not official NWS values.
T = Trace of Precipitation, MM = Missing Value Source: NWS Daily Summary

Daily Weather History Graph

Daily Weather History Graph

Search for Another Location

Airport or City:

Trip Planner

Search our weather history database for the weather conditions in past years. The results will help you decide how hot, cold, wet, or windy it might be!

Date:

Astronomy

Jan. 01, 2013 Rise Set
Actual Time 7:41 AM EST 5:46 PM EST
Civil Twilight 7:14 AM EST 6:13 PM EST
Nautical Twilight 6:43 AM EST 6:43 PM EST
Astronomical Twilight 6:13 AM EST 7:13 PM EST
Moon 10:00 PM EST (1/1) 10:07 AM EST (1/1)
Length of Visible Light 10h 58m
Length of Day
10h 04m
Waning Gibbous, 83% of the Moon is Illuminated
Jan 1
Waning Gibbous
Jan 4
Last Quarter
Jan 11
New
Jan 18
First Quarter
Jan 26
Full

Hourly Weather History & Observations

Time (EST) Temp. Windchill Dew Point Humidity Pressure Visibility Wind Dir Wind Speed Gust Speed Precip Events Conditions
12:55 AM 45.9 °F - 43.7 °F 92% 30.15 in 10.0 mi Calm Calm - N/A   Mostly Cloudy
1:55 AM 45.0 °F - 43.5 °F 95% 30.13 in 10.0 mi Calm Calm - N/A   Mostly Cloudy
2:03 AM 44.6 °F 43.1 °F 42.8 °F 93% 30.13 in 10.0 mi SSE 3.5 mph - N/A   Overcast
2:55 AM 48.4 °F - 45.9 °F 91% 30.12 in 10.0 mi Calm Calm - N/A   Overcast
3:10 AM 48.2 °F - 46.4 °F 93% 30.12 in 10.0 mi Calm Calm - N/A   Overcast
3:55 AM 49.6 °F - 46.6 °F 89% 30.10 in 10.0 mi Calm Calm - N/A   Overcast
4:55 AM 46.8 °F - 45.3 °F 95% 30.09 in 10.0 mi Calm Calm - N/A   Overcast
5:55 AM 47.5 °F - 46.0 °F 95% 30.08 in 10.0 mi Calm Calm - N/A   Overcast
6:55 AM 46.4 °F - 45.3 °F 96% 30.07 in 10.0 mi Calm Calm - N/A   Mostly Cloudy
7:55 AM 44.4 °F - 44.1 °F 99% 30.08 in 6.0 mi Calm Calm - N/A   Scattered Clouds
8:55 AM 47.7 °F - 46.6 °F 96% 30.08 in 10.0 mi Calm Calm - N/A   Clear
9:55 AM 58.5 °F - 51.1 °F 76% 30.08 in 10.0 mi SSE 3.5 mph - N/A   Clear
10:55 AM 65.3 °F - 54.9 °F 69% 30.07 in 10.0 mi South 5.8 mph - N/A   Clear
11:55 AM 69.4 °F - 56.5 °F 63% 30.04 in 10.0 mi Variable 6.9 mph - N/A   Scattered Clouds
12:55 PM 70.5 °F - 57.4 °F 63% 30.01 in 10.0 mi South 8.1 mph - N/A   Overcast
1:55 PM 71.2 °F - 58.3 °F 64% 29.98 in 10.0 mi WSW 6.9 mph - N/A   Overcast
2:55 PM 70.5 °F - 58.1 °F 65% 29.96 in 10.0 mi Calm Calm - N/A   Overcast
3:55 PM 70.7 °F - 59.0 °F 66% 29.94 in 10.0 mi ESE 3.5 mph - N/A   Overcast
4:55 PM 69.4 °F - 59.0 °F 69% 29.93 in 10.0 mi SSE 3.5 mph - N/A   Overcast
5:55 PM 66.6 °F - 58.6 °F 76% 29.92 in 10.0 mi SSE 4.6 mph - N/A   Overcast
6:48 PM 69.8 °F - 59.0 °F 68% 29.93 in 10.0 mi Variable 3.5 mph - N/A   Overcast
6:55 PM 70.0 °F - 60.1 °F 71% 29.94 in 10.0 mi SW 9.2 mph - 0.00 in Rain Light Rain
6:57 PM 69.8 °F - 60.8 °F 73% 29.93 in 10.0 mi Variable 6.9 mph - N/A Rain Light Rain
6:59 PM 69.8 °F - 60.8 °F 73% 29.93 in 10.0 mi South 4.6 mph - N/A Rain Light Rain
7:07 PM 69.8 °F - 60.8 °F 73% 29.93 in 10.0 mi Variable 4.6 mph - N/A   Overcast
7:08 PM 69.8 °F - 60.8 °F 73% 29.93 in 10.0 mi Variable 3.5 mph - N/A   Mostly Cloudy
7:14 PM 69.8 °F - 60.8 °F 73% 29.93 in 10.0 mi SSW 5.8 mph - N/A   Overcast
7:22 PM 69.8 °F - 60.8 °F 73% 29.94 in 10.0 mi Variable 4.6 mph - N/A   Overcast
7:24 PM 69.8 °F - 60.8 °F 73% 29.94 in 10.0 mi SSW 5.8 mph - N/A   Overcast
7:26 PM 69.8 °F - 60.8 °F 73% 29.94 in 10.0 mi SSW 9.2 mph - N/A   Overcast
7:40 PM 69.8 °F - 60.8 °F 73% 29.94 in 10.0 mi SSW 8.1 mph - N/A   Overcast
7:55 PM 68.5 °F - 61.5 °F 78% 29.94 in 10.0 mi SSW 3.5 mph - 0.00 in   Overcast
8:36 PM 68.0 °F - 60.8 °F 78% 29.94 in 10.0 mi NNW 8.1 mph - N/A   Overcast
8:38 PM 66.2 °F - 60.8 °F 83% 29.94 in 10.0 mi NNW 8.1 mph - N/A   Overcast
8:39 PM 66.2 °F - 60.8 °F 83% 29.94 in 10.0 mi North 6.9 mph - N/A   Overcast
8:55 PM 64.6 °F - 60.6 °F 87% 29.94 in 10.0 mi NNE 8.1 mph - 0.00 in   Light Drizzle
9:12 PM 62.6 °F - 60.8 °F 94% 29.94 in 8.0 mi ESE 4.6 mph - N/A   Overcast
9:22 PM 60.8 °F - 60.8 °F 100% 29.96 in 9.0 mi NW 10.4 mph - N/A   Overcast
9:25 PM 60.8 °F - 60.8 °F 100% 29.95 in 10.0 mi North 9.2 mph - N/A Rain Light Rain
9:30 PM 60.8 °F - 59.0 °F 94% 29.96 in 6.0 mi North 5.8 mph - N/A Rain Rain
9:32 PM 60.8 °F - 59.0 °F 94% 29.95 in 5.0 mi NNE 3.5 mph - N/A Rain Heavy Rain
9:33 PM 60.8 °F - 59.0 °F 94% 29.95 in 5.0 mi Calm Calm - N/A Rain Heavy Rain
9:34 PM 60.8 °F - 59.0 °F 94% 29.95 in 5.0 mi Calm Calm - N/A Rain Light Rain
9:35 PM 60.8 °F - 59.0 °F 94% 29.95 in 5.0 mi Calm Calm - N/A Rain Light Rain
9:46 PM 59.0 °F - 59.0 °F 100% 29.95 in 5.0 mi Calm Calm - N/A Rain Light Rain
9:52 PM 59.0 °F - 59.0 °F 100% 29.95 in 3.0 mi Calm Calm - N/A Rain Rain
9:55 PM 59.5 °F - 59.2 °F 99% 29.95 in 3.0 mi Calm Calm - 0.05 in Rain Heavy Rain
9:57 PM 59.0 °F - 59.0 °F 100% 29.95 in 2.5 mi Calm Calm - N/A Rain Heavy Rain
10:00 PM 59.0 °F - 59.0 °F 100% 29.95 in 2.5 mi Calm Calm - N/A Rain Heavy Rain
10:03 PM 59.0 °F - 59.0 °F 100% 29.95 in 1.8 mi Calm Calm - N/A Rain Heavy Rain
10:13 PM 60.8 °F - 59.0 °F 94% 29.95 in 2.0 mi Calm Calm - N/A Rain Heavy Rain
10:15 PM 60.8 °F - 59.0 °F 94% 29.95 in 1.8 mi Calm Calm - N/A Rain Heavy Rain
10:26 PM 60.8 °F - 59.0 °F 94% 29.95 in 2.0 mi SE 3.5 mph - N/A Rain Heavy Rain
10:28 PM 60.8 °F - 59.0 °F 94% 29.95 in 2.0 mi SE 3.5 mph - N/A Rain Heavy Rain
10:30 PM 60.8 °F - 59.0 °F 94% 29.95 in 2.0 mi SE 3.5 mph - N/A Rain Light Rain
10:34 PM 60.8 °F - 59.0 °F 94% 29.95 in 3.0 mi SE 3.5 mph - N/A Rain Light Rain
10:43 PM 60.8 °F - 59.0 °F 94% 29.95 in 2.5 mi Calm Calm - N/A Rain Heavy Rain
10:45 PM 60.8 °F - 59.0 °F 94% 29.95 in 2.5 mi Calm Calm - N/A Rain Heavy Rain
10:55 PM 60.4 °F - 60.1 °F 99% 29.95 in 2.0 mi Calm Calm - 0.37 in Rain Heavy Rain
11:10 PM 60.8 °F - 60.8 °F 100% 29.94 in 2.0 mi SE 3.5 mph - N/A Rain Heavy Rain
11:14 PM 60.8 °F - 60.8 °F 100% 29.95 in 2.5 mi Calm Calm - N/A Rain Light Rain
11:15 PM 60.8 °F - 60.8 °F 100% 29.94 in 3.0 mi Calm Calm - N/A Rain Light Rain
11:20 PM 60.8 °F - 60.8 °F 100% 29.95 in 5.0 mi Calm Calm - N/A Rain Light Rain
11:26 PM 60.8 °F - 60.8 °F 100% 29.95 in 6.0 mi Variable 3.5 mph - N/A Rain Light Rain
11:31 PM 62.6 °F - 62.6 °F 100% 29.94 in 5.0 mi West 3.5 mph - N/A Rain Light Rain
11:43 PM 62.6 °F - 62.6 °F 100% 29.94 in 5.0 mi WSW 3.5 mph - N/A Rain Light Rain
11:52 PM 62.6 °F - 62.6 °F 100% 29.94 in 10.0 mi Calm Calm - N/A Rain Light Rain
11:55 PM 63.0 °F - 62.6 °F 99% 29.94 in 10.0 mi Calm Calm - 0.12 in Rain Light Rain